Location: Flensburg
(54.6357°N, 9.5142°E)
Time: 07:50:08
(UTC+01:00)

Envisat - Visible Passes

Search period start: 17 January 2018 00:00
Search period end: 27 January 2018 00:00
Orbit: 764 x 766 km, 98.2° (Epoch: 16 January)

Date Brightness Start Highest point End Pass type
(mag) Time Alt. Az. Time Alt. Az. Time Alt. Az.
17 Jan 3.9 18:19:48 23° E 18:21:05 26° ENE 18:25:15 10° N visible
17 Jan 3.2 19:59:59 66° W 19:59:59 66° W 20:04:51 10° NNW visible
17 Jan 5.8 21:40:11 12° WNW 21:40:11 12° WNW 21:41:55 10° WNW visible
18 Jan 4.5 17:42:25 12° E 17:44:50 16° NE 17:47:50 10° NNE visible
18 Jan 2.9 19:22:36 64° E 19:23:01 67° ENE 19:28:05 10° NNW visible
18 Jan 5.1 21:02:48 23° W 21:02:48 23° W 21:06:35 10° NW visible
19 Jan 5.9 07:21:11 10° NE 07:23:52 14° E 07:26:33 10° ESE visible
19 Jan 3.5 18:45:14 32° E 18:46:28 37° ENE 18:51:08 10° N visible
19 Jan 4.0 20:25:24 43° W 20:25:28 43° W 20:30:20 10° NNW visible
20 Jan 4.1 18:07:50 17° E 18:10:05 22° NE 18:13:57 10° N visible
20 Jan 3.0 19:48:01 69° S 19:48:36 81° WSW 19:53:44 10° NNW visible
20 Jan 5.6 21:28:12 15° W 21:28:28 15° W 21:31:25 10° NW visible
21 Jan 5.7 07:45:54 10° NE 07:49:50 22° E 07:53:45 10° SE visible
21 Jan 4.6 17:31:23 10° ENE 17:33:52 14° NE 17:36:22 10° NNE visible
21 Jan 3.0 19:10:36 43° ESE 19:11:55 56° ENE 19:16:54 10° N visible
21 Jan 4.8 20:50:48 28° WSW 20:51:16 28° W 20:55:38 10° NNW visible
22 Jan 6.1 07:10:49 10° ENE 07:12:33 12° E 07:14:17 10° ESE visible
22 Jan 3.7 18:33:12 23° ESE 18:35:25 32° ENE 18:39:54 10° N visible
22 Jan 3.7 20:13:24 46° SW 20:14:17 52° W 20:19:16 10° NNW visible
23 Jan 4.3 17:55:47 11° E 17:59:06 19° NE 18:02:38 10° N visible
23 Jan 2.8 19:35:58 47° SSE 19:37:27 85° ENE 19:42:36 10° NNW visible
23 Jan 5.4 21:16:09 17° WSW 21:17:11 18° W 21:20:41 10° NW visible
24 Jan 5.8 07:35:03 10° NE 07:38:34 18° E 07:42:04 10° SE visible
24 Jan 3.2 18:58:32 28° ESE 19:00:50 47° ENE 19:05:43 10° N visible
24 Jan 4.5 20:38:43 29° SW 20:40:02 33° W 20:44:39 10° NNW visible
25 Jan 3.9 18:21:06 15° ESE 18:24:23 27° ENE 18:28:38 10° N visible
25 Jan 3.3 20:01:17 38° SSW 20:03:06 63° WSW 20:08:10 10° NNW visible
25 Jan 5.9 21:41:31 10° W 21:43:11 11° W 21:44:52 10° WNW visible
26 Jan 4.5 17:44:57 10° E 17:48:06 17° NE 17:51:16 10° N visible
26 Jan 2.8 19:23:51 30° SSE 19:26:21 72° ENE 19:31:26 10° NNW visible
26 Jan 5.2 21:04:02 18° WSW 21:05:54 22° W 21:09:50 10° NW visible
